TimeCDT,TemperatureF,Dew PointF,Humidity,Sea Level PressureIn,VisibilityMPH,Wind Direction,Wind SpeedMPH,Gust SpeedMPH,PrecipitationIn,Events,Conditions,WindDirDegrees,DateUTC
12:56 AM,45.0,43.0,93,29.91,10.0,Calm,Calm,-,N/A,,Clear,0,2013-05-05 05:56:00
1:56 AM,45.0,43.0,93,29.91,10.0,Calm,Calm,-,N/A,,Clear,0,2013-05-05 06:56:00
2:56 AM,45.0,43.0,93,29.90,10.0,Calm,Calm,-,N/A,,Clear,0,2013-05-05 07:56:00
3:56 AM,46.0,44.1,93,29.90,10.0,Calm,Calm,-,N/A,,Clear,0,2013-05-05 08:56:00
4:56 AM,46.0,44.1,93,29.89,10.0,Calm,Calm,-,N/A,,Clear,0,2013-05-05 09:56:00
5:56 AM,46.9,45.0,93,29.89,10.0,Calm,Calm,-,N/A,,Partly Cloudy,0,2013-05-05 10:56:00
6:56 AM,52.0,48.9,89,29.89,10.0,Calm,Calm,-,N/A,,Scattered Clouds,0,2013-05-05 11:56:00
7:56 AM,66.0,55.9,70,29.88,10.0,WSW,9.2,17.3,N/A,,Partly Cloudy,240,2013-05-05 12:56:00
8:56 AM,64.9,59.0,81,29.88,10.0,West,9.2,-,0.01,,Mostly Cloudy,270,2013-05-05 13:56:00
9:56 AM,70.0,57.0,63,29.87,10.0,WSW,13.8,23.0,N/A,,Clear,250,2013-05-05 14:56:00
10:56 AM,71.1,54.0,55,29.88,10.0,WSW,13.8,29.9,N/A,,Partly Cloudy,250,2013-05-05 15:56:00
11:56 AM,72.0,46.9,41,29.87,10.0,WSW,16.1,24.2,N/A,,Partly Cloudy,250,2013-05-05 16:56:00
12:56 PM,72.0,42.1,34,29.87,10.0,WSW,16.1,25.3,N/A,,Scattered Clouds,250,2013-05-05 17:56:00
1:56 PM,71.1,45.0,39,29.85,10.0,West,12.7,26.5,N/A,,Scattered Clouds,270,2013-05-05 18:56:00
2:56 PM,68.0,48.9,50,29.84,10.0,West,12.7,23.0,N/A,,Partly Cloudy,270,2013-05-05 19:56:00
3:56 PM,69.1,41.0,36,29.85,10.0,WNW,12.7,21.9,N/A,,Partly Cloudy,300,2013-05-05 20:56:00
4:56 PM,66.0,37.0,34,29.87,10.0,West,11.5,21.9,N/A,,Partly Cloudy,270,2013-05-05 21:56:00
5:56 PM,64.0,37.9,38,29.88,10.0,WNW,10.4,18.4,N/A,,Partly Cloudy,300,2013-05-05 22:56:00
6:56 PM,62.1,39.0,43,29.91,10.0,NW,11.5,17.3,N/A,,Partly Cloudy,310,2013-05-05 23:56:00
7:56 PM,57.9,37.9,47,29.94,10.0,NNW,16.1,23.0,N/A,,Partly Cloudy,330,2013-05-06 00:56:00
8:30 PM,57.2,39.2,51,29.95,10.0,NNW,8.1,-,N/A,,Partly Cloudy,330,2013-05-06 01:30:00
8:56 PM,55.9,39.9,55,29.96,10.0,NNW,6.9,-,N/A,,Clear,330,2013-05-06 01:56:00
9:56 PM,54.0,39.9,59,29.98,10.0,NW,4.6,-,N/A,,Clear,320,2013-05-06 02:56:00
10:56 PM,52.0,41.0,66,30.00,10.0,NW,4.6,-,N/A,,Clear,310,2013-05-06 03:56:00
11:56 PM,53.1,42.1,66,30.00,10.0,NW,8.1,-,N/A,,Clear,320,2013-05-06 04:56:00